Hourly Data Report for February 14, 2003

TORONTO CITY
ONTARIO

43°40'00.000" N
79°24'00.000" W
112.50 m
6158355
71508
XTO

Download Data

Hourly Data (February 2003)
Hourly Data Report for February 14, 2003
TIME
LST
Temp Definition
°C
Dew Point Definition
°C
Rel Hum Definition
%
Precip. Amount Definition
mm

Wind Dir Definition
10's deg

Wind Spd Definition
km/h
Visibility Definition
km
Stn Press Definition
kPa
Hmdx Definition


Wind Chill Definition


Weather Definition


00:00 -11.6 -15.6 72     0 LegendMM 100.40     LegendNANA
01:00
02:00 -11.7 -16.5 68     0 LegendMM 100.55     LegendNANA
03:00 -11.7 -17.4 63     0 LegendMM 100.58     LegendNANA
04:00 -12.0 -17.5 64     0 LegendMM 100.53     LegendNANA
05:00
06:00 -11.6 -16.6 66     0 LegendMM 100.59     LegendNANA
07:00 -12.1 -16.2 71     0 LegendMM 100.60     LegendNANA
08:00 -10.8 -15.3 69     0 LegendMM 100.70     LegendNANA
09:00 -10.0 -15.2 66     0 LegendMM 100.79     LegendNANA
10:00 -9.7 -15.1 65     0 LegendMM 100.81     LegendNANA
11:00 -8.7 -14.9 61     0 LegendMM 100.85     LegendNANA
12:00 -7.2 -14.8 55     0 LegendMM 100.78     LegendNANA
13:00 -5.2 -13.8 51     0 LegendMM 100.71     LegendNANA
14:00 -5.7 -14.3 51     0 LegendMM 100.68     LegendNANA
15:00 -6.7 -14.8 52     0 LegendMM 100.70     LegendNANA
16:00 -6.5 -14.4 53     0 LegendMM 100.72     LegendNANA
17:00 -7.6 -14.7 57     0 LegendMM 100.74     LegendNANA
18:00 -8.6 -15.7 56     0 LegendMM 100.80     LegendNANA
19:00
20:00 -10.3 -16.7 59     0 LegendMM 100.89     LegendNANA
21:00 -10.7 -16.8 61     0 LegendMM 100.90     LegendNANA
22:00 -11.2 -18.1 57     0 LegendMM 100.97     LegendNANA
23:00 -12.2 -18.9 57     0 LegendMM 101.02     LegendNANA

Notes on Data Quality.

Legend

  • E = Estimated
  • M = Missing
  • NA = Not Available*
  • [empty] = Indicates an unobserved value
Date modified: